TIME,DELAY(SENSOR),PRES,OXYGEN,RAWTEMP,T(OPTODE),TCPHASE,FLUOR,BETA(BETA700),BETA(BETA412),BETA(BETA440),CDOM,C(CSC),ED(ED411.90),ED(ED443.80),ED(ED489.40),ED(ED554.70),LU(LU412.20),LU(LU443.80),LU(LU489.40),LU(LU555.00),COMP,TILTX,TILTY,CHECK
1361314424,5807,858.4299926757812000,186.2476043701172000,486.5765075683594000,7.9453539848327640,38.5449409484863300,72,271,97,79,81,11824,2146962953,2147515803,2147296201,2147511734,2147090066,2146921481,2147716205,2147120713,165,0,8,12508
1361318021,5807,947.5800170898438000,240.8480987548828000,551.3867797851562000,5.9259028434753420,36.5235786437988300,75,293,98,79,81,11800,2146964589,2147517211,2147303753,2147526290,2147089590,2146911990,2147729737,2147122331,71,0,8,1612
1361321621,5806,976.3300170898438000,255.2946014404297000,558.1243286132812000,5.7141699790954590,35.9307212829589840,79,295,99,79,81,11814,2146962624,2147521856,2147306413,2147525997,2147088786,2146912640,2147730157,2147123163,2818,-1,8,55466
1361325221,5805,973.3200073242188000,259.9465026855469000,563.9445800781250000,5.5309638977050780,35.8155708312988300,78,292,98,79,81,11809,2146961901,2147521014,2147302262,2147525686,2147090166,2146912923,2147730230,2147121472,3338,-1,8,29923
1361328821,5808,978.2899780273438000,259.2051086425781000,564.0187988281250000,5.5286269187927250,35.8519592285156250,80,296,100,79,81,11808,2146961627,2147519597,2147304786,2147523446,2147086756,2146915757,2147726921,2147119414,288,0,8,63940
1361332421,5803,986.5900268554688000,260.0085144042969000,562.7728271484375000,5.5678730010986330,35.7912483215332000,79,290,98,79,82,11807,2146965915,2147519049,2147304420,2147526674,2147089865,2146921728,2147729865,2147118546,3389,-1,8,59348
1361336021,5805,979.6900024414062000,259.6098937988281000,565.0040283203125000,5.4975891113281250,35.8514099121093750,80,292,99,79,81,11806,2146960758,2147521920,2147304164,2147525211,2147090514,2146915684,2147730870,2147118921,3444,-1,8,47176
1361339621,5803,985.6900024414062000,261.2770080566406000,564.3956298828125000,5.5167579650878910,35.7616310119628900,80,289,99,78,81,11802,2146963154,2147521197,2147302848,2147525001,2147086253,2146915053,2147731620,2147122925,3439,-1,8,32698
1361343221,5805,987.9099731445312000,260.2716979980469000,564.4332885742188000,5.5155677795410160,35.8093299865722660,81,288,100,80,80,11805,2146963163,2147517421,2147302445,2147525613,2147086034,2146914587,2147732580,2147121636,286,-1,8,61219
1361346821,5807,994.7000122070312000,261.0842895507812500,564.4445800781250000,5.5152111053466800,35.7718696594238300,81,285,99,80,80,11804,2146961435,2147520484,2147303616,2147527085,2147087826,2146921792,2147727350,2147118829,2848,0,8,52850
1361350421,5807,990.9600219726562000,260.2334899902344000,564.2171020507812000,5.5223808288574220,35.8073692321777340,81,294,98,79,81,11803,2146966354,2147516425,2147302427,2147525796,2147088384,2146918994,2147729645,2147121856,2864,0,8,32496
1361354021,5805,999.2000122070312000,260.0776977539062500,563.4083862304688000,5.5478549003601070,35.8003196716308600,80,284,100,83,80,11801,2146962203,2147521810,2147305234,2147523392,2147085083,2146915510,2147729728,2147122944,3504,-1,8,60593
1361357621,5806,1004.2399902343750000,256.5871887207031000,559.5236816406250000,5.6701450347900390,35.8943099975585940,82,281,99,79,80,11805,2146962770,2147521609,2147304329,2147523922,2147086683,2146920704,2147735661,2147121828,119,0,8,7195
1361361221,5806,1004.9799804687500000,254.8464965820312500,559.2122802734375000,5.6799449920654300,35.9719505310058600,80,284,99,79,81,11801,2146962130,2147519826,2147301494,2147525878,2147086354,2146922176,2147729581,2147121344,3310,-1,8,4108
1361364821,5805,996.6199951171875000,256.1706848144531000,559.9799194335938000,5.6557941436767580,35.9225082397460940,80,285,98,78,80,11800,2146962834,2147514733,2147302445,2147525449,2147085522,2146919561,2147729124,2147122322,716,0,8,17481
1361368421,5806,996.1500244140625000,254.8896026611328000,560.7609252929688000,5.6312141418457030,35.9982795715332000,81,287,98,79,80,11799,2146967597,2147517851,2147303067,2147522825,2147089536,2146916873,2147731529,2147121252,3556,-1,8,40568
1361372021,5809,999.3300170898438000,254.5962066650390600,562.0803222656250000,5.5896778106689450,36.0368804931640600,82,286,99,79,81,11798,2146963090,2147517449,2147306331,2147528576,2147089673,2146918619,2147728886,2147123282,3584,-1,8,46297
1361375621,5804,996.6400146484375000,258.9537963867187500,563.9340209960938000,5.5313000679016110,35.8625793457031250,81,289,99,80,81,11796,2146963693,2147517275,2147304804,2147527213,2147090349,2146917668,2147731840,2147120978,3341,-1,8,59912
1361379221,5805,996.0200195312500000,260.8080139160156000,564.2974853515625000,5.5198459625244140,35.7823295593261700,81,291,98,79,81,11797,2146964507,2147519296,2147305600,2147524836,2147086134,2146916864,2147731318,2147124845,3232,0,8,10279
1361382821,5806,992.9699707031250000,263.2804870605469000,566.4951782226562000,5.4505901336669920,35.7065086364746100,81,291,101,80,81,11791,2146965028,2147516379,2147306011,2147523721,2147086500,2146912868,2147730916,2147124809,3458,0,8,34472
1361386421,5805,998.1099853515625000,261.7461853027344000,564.9860229492188000,5.4981579780578610,35.7510108947753900,80,287,99,81,81,11795,2146963245,2147516114,2147303177,2147525138,2147090102,2146919552,2147732818,2147126052,3264,-1,8,19575
1361390021,5803,1002.1500244140625000,262.0999145507812500,564.5648803710938000,5.5114212036132810,35.7265510559082000,80,289,98,80,80,11795,2146963858,2147518354,2147302793,2147524754,2147088118,2146913362,2147730998,2147124233,2900,-1,8,32449
1361393621,5807,1002.6799926757812000,261.0118103027344000,564.0062255859375000,5.5290260314941410,35.7672996520996100,80,290,99,79,80,11792,2146963574,2147520685,2147305097,2147528100,2147090468,2146916224,2147731172,2147119478,3429,-1,8,11493
1361397221,5808,994.2000122070312000,262.7690124511719000,566.0855102539062000,5.4635047912597660,35.7229003906250000,81,293,97,80,81,11793,2146963730,2147517869,2147304146,2147526482,2147089280,2146915602,2147732470,2147121837,141,-1,8,9542
1361400821,5803,998.1900024414062000,261.9003906250000000,564.8253784179688000,5.5032157897949220,35.7405014038085940,80,291,99,79,82,11794,2146963885,2147522285,2147301988,2147527606,2147087506,2146916553,2147729289,2147121609,3069,-1,8,44551
1361404421,5806,994.7100219726562000,263.2018127441406000,566.0828247070312000,5.4635910987854000,35.7031898498535160,78,294,99,79,79,11790,2146964992,2147520100,2147302656,2147527990,2147084937,2146912786,2147740818,2147117494,362,-1,8,53920
1361408021,5805,1003.0100097656250000,263.3442993164062500,566.8217163085938000,5.4402980804443360,35.7099304199218750,80,292,98,80,81,11790,2146964955,2147517513,2147299949,2147524123,2147090578,2146921243,2147731766,2147121051,3545,-1,8,4939
1361411621,5804,998.7399902343750000,263.4684143066406000,566.2720947265625000,5.4576239585876465,35.6939506530761700,80,294,99,80,81,11793,2146959972,2147517869,2147303305,2147522404,2147088676,2146914505,2147730185,2147121472,3548,-1,8,2809
1361415221,5803,996.9099731445312000,264.3421936035156000,568.0410156250000000,5.4018549919128420,35.6861114501953100,81,294,100,78,81,11788,2146963090,2147515410,2147301997,2147524416,2147086052,2146918957,2147734692,2147119049,3109,-1,8,48665
1361418821,5805,994.9099731445312000,264.5409851074219000,567.8765869140625000,5.4070401191711430,35.6735801696777340,81,294,99,79,80,11774,2146960658,2147520539,2147301988,2147528585,2147088941,2146917970,2147730038,2147119680,3267,-1,8,41544
1361422421,5807,997.9500122070312000,264.9177856445312500,567.6038818359375000,5.4156379699707030,35.6512107849121100,82,296,99,80,80,11785,2146961389,2147518537,2147303497,2147526427,2147087533,2146918217,2147733796,2147122678,117,0,8,56300
1361426021,5809,1000.7000122070312000,265.0168151855469000,567.6066284179688000,5.4155540466308590,35.6465797424316400,82,294,101,79,81,11786,2146963510,2147520438,2147303954,2147524397,2147089161,2146921078,2147733248,2147119250,192,-1,8,13941
1361429621,5805,999.3200073242188000,262.4614868164062500,566.5582275390625000,5.4486060142517090,35.7460899353027340,82,299,99,80,81,11786,2146961590,2147517805,2147304457,2147528100,2147088036,2146919561,2147729974,2147117001,3222,-1,8,9724
1361433221,5803,1001.6199951171875000,263.9699096679687500,567.2974243164062000,5.4253010749816895,35.6892890930175800,81,293,99,80,80,11784,2146965156,2147520137,2147305974,2147526427,2147092699,2146919195,2147730386,2147122230,3356,-1,8,22527
1361436821,5803,1003.4500122070312000,263.4025878906250000,566.4459228515625000,5.4521470069885250,35.7002182006835940,81,295,100,79,81,11782,2146962468,2147519204,2147306651,2147525897,2147090395,2146914706,2147729636,2147122907,3432,0,8,53087
1361440421,5807,1002.9500122070312000,261.8522033691406000,565.5474243164062000,5.4804649353027340,35.7560997009277340,81,294,98,79,81,11780,2146965723,2147521252,2147303497,2147522486,2147088502,2146915456,2147733138,2147123931,255,-1,8,31415
1361444021,5809,1006.5700073242188000,261.3411865234375000,564.4956054687500000,5.5136070251464840,35.7604789733886700,80,296,100,79,81,11783,2146962797,2147517869,2147303378,2147526637,2147088996,2146913819,2147733110,2147121481,24,-1,8,50003
1361447621,5805,1007.8400268554688000,259.9859008789062500,564.5142822265625000,5.5130181312561035,35.8243293762207000,81,296,99,80,81,11782,2146965888,2147518299,2147302838,2147525010,2147091501,2146923373,2147733485,2147120210,3531,-1,8,35671
1361451221,5805,1005.0499877929688000,260.7551879882812500,564.7932128906250000,5.5042290687561035,35.7935600280761700,80,299,98,81,81,11780,2146963392,2147517174,2147302016,2147524790,2147088484,2146918491,2147731794,2147122294,3316,0,8,55007
1361454821,5810,1002.4500122070312000,261.1737976074219000,566.3156738281250000,5.4562468528747560,35.8015785217285160,82,298,98,80,80,11778,2146961334,2147515520,2147302546,2147526692,2147090733,2146918198,2147731136,2147119643,48,-1,8,61500
1361457956,5805,1003.4400024414062000,261.1264038085937500,566.1342773437500000,5.4619669914245605,35.8007011413574200,82,300,99,79,81,11787,2146963318,2147521490,2147307629,2147525476,2147088813,2146920566,2147728896,2147121033,284,-1,8,10819
